Beaufort, NC

9:18 AM EST on December 11, 2017 (GMT -0500)
Smith

Weather History for KMRH - August, 2013

Change the Weather History Date:

Saturday, August 3, 2013

  Actual Average Record
Temperature  
Mean Temperature 81 °F -  
Max Temperature 84 °F 87 °F 100 °F (2012)
Min Temperature 78 °F 72 °F 64 °F (1985)
Cooling Degree Days 16    
Growing Degree Days 31 (Base 50)    
Moisture  
Dew Point 77 °F    
Average Humidity 89    
Maximum Humidity 100    
Minimum Humidity 76    
Precipitation  
Precipitation 0.00 in - - ()
Sea Level Pressure  
Sea Level Pressure 30.02 in    
Wind  
Wind Speed 12 mph (SW)    
Max Wind Speed 18 mph    
Max Gust Speed 22 mph    
Visibility 10 miles    
Events      
Averages and records for this station are not official NWS values.
T = Trace of Precipitation, MM = Missing Value Source: NWS Daily Summary

Daily Weather History Graph

Daily Weather History Graph

Search for Another Location

Airport or City:

Trip Planner

Search our weather history database for the weather conditions in past years. The results will help you decide how hot, cold, wet, or windy it might be!

Date:

Astronomy

Aug. 03, 2013 Rise Set
Actual Time 6:18 AM EDT 8:06 PM EDT
Civil Twilight 5:50 AM EDT 8:34 PM EDT
Nautical Twilight 5:17 AM EDT 9:07 PM EDT
Astronomical Twilight 4:42 AM EDT 9:42 PM EDT
Moon 3:27 AM EDT (8/3) 5:46 PM EDT (8/3)
Length of Visible Light 14h 43m
Length of Day
13h 48m
Waning Crescent, 9% of the Moon is Illuminated
Aug 3
Waning Crescent
Aug 6
New
Aug 14
First Quarter
Aug 20
Full
Aug 28
Last Quarter

Hourly Weather History & Observations

Time (EDT) Temp. Heat Index Dew Point Humidity Pressure Visibility Wind Dir Wind Speed Gust Speed Precip Events Conditions
12:30 AM 80.6 °F 87.1 °F 77.0 °F 89% 30.05 in 10.0 mi SW 10.4 mph - N/A   Overcast
12:58 AM 80.1 °F 85.8 °F 77.0 °F 90% 30.05 in 10.0 mi SW 11.5 mph - N/A   Mostly Cloudy
1:17 AM 78.8 °F - 78.8 °F 100% 30.05 in 10.0 mi SW 11.5 mph - N/A   Scattered Clouds
1:51 AM 78.8 °F - 78.8 °F 100% 30.04 in 10.0 mi SW 10.4 mph - N/A   Mostly Cloudy
1:58 AM 79.0 °F - 77.0 °F 94% 30.04 in 10.0 mi SW 12.7 mph - N/A   Mostly Cloudy
2:24 AM 78.8 °F - 77.0 °F 94% 30.03 in 10.0 mi SW 12.7 mph - N/A   Scattered Clouds
2:58 AM 79.0 °F - 77.0 °F 94% 30.03 in 10.0 mi SW 12.7 mph - N/A   Clear
3:51 AM 78.8 °F - 78.8 °F 100% 30.03 in 10.0 mi SW 12.7 mph - N/A   Mostly Cloudy
3:58 AM 79.0 °F - 78.1 °F 97% 30.03 in 10.0 mi SW 15.0 mph - N/A   Mostly Cloudy
4:56 AM 78.8 °F - 77.0 °F 94% 30.03 in 10.0 mi SW 12.7 mph - N/A   Mostly Cloudy
4:58 AM 79.0 °F - 77.0 °F 94% 30.04 in 10.0 mi SW 10.4 mph - N/A   Mostly Cloudy
5:11 AM 78.8 °F - 78.8 °F 100% 30.03 in 10.0 mi SW 13.8 mph 18.4 mph N/A   Scattered Clouds
5:34 AM 78.8 °F - 78.8 °F 100% 30.03 in 10.0 mi SW 12.7 mph - N/A   Mostly Cloudy
5:58 AM 79.0 °F - 77.0 °F 94% 30.04 in 10.0 mi SW 13.8 mph 21.9 mph N/A   Scattered Clouds
6:58 AM 79.0 °F - 77.0 °F 94% 30.04 in 9.0 mi SW 13.8 mph - N/A   Partly Cloudy
7:58 AM 80.1 °F 85.8 °F 77.0 °F 90% 30.06 in 10.0 mi WSW 10.4 mph - N/A   Partly Cloudy
8:58 AM 81.0 °F 87.9 °F 77.0 °F 88% 30.06 in 10.0 mi SW 12.7 mph - N/A   Scattered Clouds
9:12 AM 80.6 °F 88.1 °F 78.8 °F 94% 30.05 in 10.0 mi SW 12.7 mph - N/A   Mostly Cloudy
9:58 AM 82.0 °F 90.2 °F 77.0 °F 85% 30.05 in 10.0 mi WSW 12.7 mph - N/A   Mostly Cloudy
10:05 AM 82.4 °F 90.9 °F 77.0 °F 84% 30.05 in 10.0 mi SW 12.7 mph - N/A   Mostly Cloudy
10:12 AM 82.4 °F 90.9 °F 77.0 °F 84% 30.05 in 10.0 mi SW 16.1 mph - N/A   Mostly Cloudy
10:35 AM 82.4 °F 90.9 °F 77.0 °F 84% 30.04 in 10.0 mi SW 13.8 mph - N/A   Scattered Clouds
10:58 AM 82.9 °F 91.8 °F 77.0 °F 82% 30.04 in 10.0 mi SW 12.7 mph - N/A   Scattered Clouds
11:28 AM 82.4 °F 90.9 °F 77.0 °F 84% 30.03 in 10.0 mi SW 13.8 mph - N/A   Mostly Cloudy
11:40 AM 82.4 °F 92.4 °F 78.8 °F 89% 30.04 in 10.0 mi SW 11.5 mph - N/A   Scattered Clouds
11:58 AM 84.0 °F 94.8 °F 78.1 °F 82% 30.04 in 10.0 mi SW 17.3 mph - N/A   Scattered Clouds
12:58 PM 84.9 °F 95.3 °F 77.0 °F 77% 30.04 in 10.0 mi SSW 13.8 mph - N/A   Partly Cloudy
1:58 PM 84.0 °F 92.6 °F 75.9 °F 76% 30.01 in 10.0 mi SW 15.0 mph - N/A   Clear
2:58 PM 84.9 °F 95.3 °F 77.0 °F 77% 30.00 in 10.0 mi SW 17.3 mph - N/A   Clear
3:58 PM 82.0 °F 89.4 °F 75.9 °F 82% 29.99 in 10.0 mi SSW 18.4 mph - N/A   Clear
4:58 PM 82.9 °F 92.8 °F 78.1 °F 85% 29.98 in 10.0 mi SSW 13.8 mph - N/A   Clear
5:58 PM 82.0 °F 90.2 °F 77.0 °F 85% 29.95 in 10.0 mi SSW 12.7 mph - N/A   Clear
6:58 PM 82.9 °F 90.8 °F 75.9 °F 79% 29.95 in 10.0 mi South 10.4 mph - N/A   Clear
7:58 PM 81.0 °F 87.9 °F 77.0 °F 88% 29.94 in 10.0 mi SSW 11.5 mph - N/A   Clear
8:58 PM 80.1 °F 85.8 °F 77.0 °F 90% 29.94 in 10.0 mi SSW 10.4 mph - N/A   Clear
9:58 PM 80.1 °F 85.8 °F 77.0 °F 90% 29.96 in 10.0 mi SW 10.4 mph - N/A   Clear
10:58 PM 80.1 °F 85.8 °F 77.0 °F 90% 29.97 in 10.0 mi WSW 5.8 mph - N/A   Clear
11:58 PM 79.0 °F - 77.0 °F 94% 29.95 in 10.0 mi WSW 6.9 mph - N/A   Clear